TimeCST,TemperatureF,Dew PointF,Humidity,Sea Level PressureIn,VisibilityMPH,Wind Direction,Wind SpeedMPH,Gust SpeedMPH,PrecipitationIn,Events,Conditions,WindDirDegrees,DateUTC
12:53 AM,34.0,30.9,89,30.05,10.0,WNW,5.8,-,N/A,,Clear,290,2014-01-15 06:53:00
1:53 AM,34.0,28.0,79,30.06,10.0,NW,3.5,-,N/A,,Clear,320,2014-01-15 07:53:00
2:53 AM,32.0,26.1,79,30.08,10.0,NW,6.9,-,N/A,,Clear,320,2014-01-15 08:53:00
3:53 AM,30.9,23.0,72,30.08,10.0,NW,5.8,-,N/A,,Clear,320,2014-01-15 09:53:00
4:53 AM,28.9,16.0,58,30.09,10.0,NW,5.8,-,N/A,,Clear,310,2014-01-15 10:53:00
5:53 AM,28.0,16.0,61,30.11,10.0,NW,4.6,-,N/A,,Clear,310,2014-01-15 11:53:00
6:53 AM,26.1,16.0,66,30.12,10.0,West,3.5,-,N/A,,Clear,270,2014-01-15 12:53:00
7:53 AM,26.1,17.1,69,30.14,10.0,WSW,3.5,-,N/A,,Clear,250,2014-01-15 13:53:00
8:53 AM,28.9,17.1,61,30.15,10.0,West,9.2,-,N/A,,Clear,280,2014-01-15 14:53:00
9:53 AM,30.9,18.0,59,30.16,10.0,NW,6.9,-,N/A,,Clear,320,2014-01-15 15:53:00
10:53 AM,30.9,16.0,54,30.16,10.0,West,10.4,-,N/A,,Mostly Cloudy,280,2014-01-15 16:53:00
11:53 AM,32.0,15.1,50,30.13,10.0,WNW,11.5,18.4,N/A,,Mostly Cloudy,290,2014-01-15 17:53:00
12:53 PM,33.1,16.0,50,30.12,10.0,West,11.5,-,N/A,,Mostly Cloudy,280,2014-01-15 18:53:00
1:53 PM,30.0,15.1,54,30.12,10.0,WNW,9.2,-,N/A,,Overcast,290,2014-01-15 19:53:00
2:53 PM,30.0,15.1,54,30.14,10.0,WNW,10.4,-,N/A,,Overcast,300,2014-01-15 20:53:00
3:53 PM,30.0,16.0,56,30.15,10.0,WNW,9.2,-,0.00,,Overcast,300,2014-01-15 21:53:00
4:53 PM,28.9,16.0,58,30.16,10.0,NW,6.9,-,N/A,,Overcast,310,2014-01-15 22:53:00
5:53 PM,28.0,14.0,56,30.18,10.0,Variable,3.5,-,N/A,,Overcast,0,2014-01-15 23:53:00
6:53 PM,26.1,14.0,60,30.17,10.0,Calm,Calm,-,N/A,,Clear,0,2014-01-16 00:53:00
7:53 PM,25.0,14.0,63,30.17,10.0,Calm,Calm,-,N/A,,Clear,0,2014-01-16 01:53:00
8:53 PM,24.1,15.1,69,30.17,10.0,Calm,Calm,-,N/A,,Clear,0,2014-01-16 02:53:00
9:53 PM,21.0,14.0,74,30.16,10.0,Calm,Calm,-,N/A,,Clear,0,2014-01-16 03:53:00
10:53 PM,21.0,14.0,74,30.15,10.0,Calm,Calm,-,N/A,,Clear,0,2014-01-16 04:53:00
11:53 PM,21.0,14.0,74,30.14,10.0,Calm,Calm,-,N/A,,Clear,0,2014-01-16 05:53:00